This is the latest recevied weather packets stored in our database for station/object EB1HRW. If no packets are shown the sender has not sent any weather packets the latest 10 day(s).
| Time | Temp. | Humidity | Pressure | Rain* | Wind** | Luminosity | Snow |
|---|---|---|---|---|---|---|---|
| 1778084638 | 16.67° C | 45% | 1011.3 hPa | 0 mm | - | - | - |
| 1778083738 | 16.67° C | 45% | 1011.4 hPa | 0 mm | - | - | - |
| 1778082839 | 16.67° C | 45% | 1011.5 hPa | 0 mm | - | - | - |
| 1778081937 | 16.67° C | 46% | 1011.5 hPa | 0 mm | - | - | - |
| 1778081038 | 16.11° C | 47% | 1011.6 hPa | 0 mm | - | - | - |
| 1778078342 | 16.11° C | 46% | 1012.1 hPa | 0 mm | - | - | - |
| 1778076539 | 16.67° C | 49% | 1012.4 hPa | 0 mm | - | - | - |
| 1778074739 | 16.11° C | 46% | 1012.8 hPa | 0 mm | - | - | - |
| 1778073839 | 16.11° C | 47% | 1013 hPa | 0 mm | - | - | - |
| 1778072940 | 16.11° C | 49% | 1013 hPa | 0 mm | - | - | - |
| 1778072039 | 15.56° C | 47% | 1013.2 hPa | 0 mm | - | - | - |
| 1778071140 | 16.11° C | 49% | 1013.3 hPa | 0 mm | - | - | - |
| 1778070240 | 15.56° C | 50% | 1013.5 hPa | 0 mm | - | - | - |
| 1778069339 | 15° C | 50% | 1013.5 hPa | 0 mm | - | - | - |
| 1778068440 | 15° C | 52% | 1013.7 hPa | 0 mm | - | - | - |
| 1778067538 | 13.89° C | 54% | 1014 hPa | 0 mm | - | - | - |
| 1778066639 | 13.33° C | 56% | 1014.1 hPa | 0 mm | - | - | - |
| 1778065739 | 13.33° C | 57% | 1014.2 hPa | 0 mm | - | - | - |
| 1778064839 | 12.78° C | 60% | 1014.2 hPa | 0 mm | - | - | - |
| 1778063939 | 12.78° C | 59% | 1014.3 hPa | 0 mm | - | - | - |
| 1778063037 | 12.22° C | 65% | 1014.2 hPa | 0 mm | - | - | - |
| 1778062138 | 11.67° C | 60% | 1014.3 hPa | 0 mm | - | - | - |
| 1778061237 | 11.67° C | 67% | 1014.3 hPa | 0 mm | - | - | - |
| 1778060338 | 11.11° C | 75% | 1014.4 hPa | 0 mm | - | - | - |
| 1778059438 | 10.56° C | 77% | 1014.5 hPa | 0 mm | - | - | - |
* Rain latest hour (hover to see other rain measurements)
** Current wind speed in m/s (hover to see current wind gust speed)